Weather History for KCMI - May, 2013

Change the Weather History Date:

Thursday, May 23, 2013

  Actual Average Record
Temperature  
Mean Temperature 53 °F 66 °F  
Max Temperature 61 °F 78 °F 91 °F (2007)
Min Temperature 44 °F 54 °F 41 °F (2006)
Degree Days  
Heating Degree Days 12 3  
Month to date heating degree days 86 123  
Since 1 July heating degree days 5611 5787  
Cooling Degree Days 0 4  
Month to date cooling degree days 82 48  
Year to date cooling degree days 90 59  
Growing Degree Days 4 (Base 50)    
Moisture  
Dew Point 51 °F    
Average Humidity 77    
Maximum Humidity 87    
Minimum Humidity 66    
Precipitation  
Precipitation 0.01 in 0.15 in 1.61 in (1949)
Month to date precipitation 1.85 3.45  
Year to date precipitation 14.09 14.06  
Sea Level Pressure  
Sea Level Pressure 29.99 in    
Wind  
Wind Speed 14 mph (NNW)    
Max Wind Speed 25 mph    
Max Gust Speed 31 mph    
Visibility 9 miles    
Events Rain    
T = Trace of Precipitation, MM = Missing Value Source: NWS Daily Summary

Daily Weather History Graph

Daily Weather History Graph

Search for Another Location

Airport or City:

Trip Planner

Search our weather history database for the weather conditions in past years. The results will help you decide how hot, cold, wet, or windy it might be!

Date:

Astronomy

May. 23, 2013 Rise Set
Actual Time 5:31 AM CDT 8:09 PM CDT
Civil Twilight 4:59 AM CDT 8:40 PM CDT
Nautical Twilight 4:20 AM CDT 9:20 PM CDT
Astronomical Twilight 3:36 AM CDT 10:04 PM CDT
Moon 6:41 PM CDT (5/23) 4:15 AM CDT (5/23)
Length of Visible Light 15h 41m
Length of Day
14h 38m
Waxing Gibbous, 97% of the Moon is Illuminated
May 23
Waxing Gibbous
May 24
Full
May 31
Last Quarter
Jun 8
New
Jun 16
First Quarter

Hourly Weather History & Observations

Time (CDT) Temp. Windchill Dew Point Humidity Pressure Visibility Wind Dir Wind Speed Gust Speed Precip Events Conditions
12:53 AM 61.0 °F - 55.0 °F 81% 29.82 in 10.0 mi West 11.5 mph - N/A   Overcast
1:53 AM 59.0 °F - 54.0 °F 83% 29.81 in 10.0 mi West 9.2 mph - N/A   Scattered Clouds
2:15 AM 57.2 °F - 53.6 °F 88% 29.82 in 10.0 mi West 8.1 mph - N/A   Mostly Cloudy
2:26 AM 57.2 °F - 53.6 °F 88% 29.82 in 10.0 mi WSW 8.1 mph - N/A   Scattered Clouds
2:53 AM 57.9 °F - 54.0 °F 87% 29.81 in 10.0 mi WSW 9.2 mph - N/A   Mostly Cloudy
3:53 AM 59.0 °F - 55.0 °F 87% 29.83 in 10.0 mi West 11.5 mph - N/A   Overcast
4:53 AM 59.0 °F - 54.0 °F 83% 29.84 in 10.0 mi West 9.2 mph - N/A   Overcast
5:31 AM 57.2 °F - 53.6 °F 88% 29.86 in 10.0 mi West 9.2 mph - N/A   Overcast
5:43 AM 57.2 °F - 53.6 °F 88% 29.86 in 10.0 mi West 10.4 mph - N/A   Overcast
5:53 AM 57.9 °F - 54.0 °F 87% 29.86 in 10.0 mi West 8.1 mph - N/A   Overcast
6:53 AM 59.0 °F - 54.0 °F 83% 29.88 in 9.0 mi West 10.4 mph - N/A   Overcast
7:41 AM 59.0 °F - 53.6 °F 82% 29.90 in 10.0 mi West 12.7 mph - N/A   Mostly Cloudy
7:53 AM 59.0 °F - 54.0 °F 83% 29.90 in 10.0 mi West 13.8 mph - N/A   Overcast
8:39 AM 60.8 °F - 53.6 °F 77% 29.92 in 10.0 mi WNW 13.8 mph - N/A   Overcast
8:48 AM 60.8 °F - 53.6 °F 77% 29.92 in 10.0 mi West 13.8 mph - N/A   Overcast
8:53 AM 60.1 °F - 54.0 °F 80% 29.92 in 10.0 mi West 11.5 mph - N/A   Overcast
9:53 AM 59.0 °F - 54.0 °F 83% 29.93 in 10.0 mi WNW 13.8 mph - N/A   Overcast
10:53 AM 59.0 °F - 55.9 °F 90% 29.96 in 3.0 mi WNW 11.5 mph - 0.00 in Rain Light Rain
11:12 AM 59.0 °F - 55.4 °F 88% 29.96 in 3.0 mi WNW 9.2 mph - 0.00 in Rain Light Rain
11:49 AM 60.8 °F - 57.2 °F 88% 29.97 in 6.0 mi NW 9.2 mph - 0.00 in   Overcast
11:53 AM 60.1 °F - 55.9 °F 86% 29.97 in 3.0 mi North 18.4 mph 21.9 mph 0.00 in Rain Light Rain
11:56 AM 57.2 °F - 55.4 °F 94% 29.98 in 1.8 mi North 17.3 mph 21.9 mph 0.01 in Rain Rain
12:04 PM 57.2 °F - 53.6 °F 88% 29.98 in 2.0 mi NNE 23.0 mph 26.5 mph 0.01 in Rain Light Rain
12:07 PM 55.4 °F - 53.6 °F 94% 29.99 in 3.0 mi NNE 19.6 mph - 0.01 in Rain Light Rain
12:19 PM 57.2 °F - 53.6 °F 88% 29.99 in 2.0 mi North 21.9 mph 26.5 mph 0.01 in Rain Light Rain
12:53 PM 59.0 °F - 53.1 °F 81% 29.99 in 10.0 mi North 20.7 mph 27.6 mph 0.01 in   Overcast
1:01 PM 59.0 °F - 53.6 °F 82% 30.00 in 10.0 mi NNE 18.4 mph 27.6 mph N/A   Mostly Cloudy
1:51 PM 55.4 °F - 50.0 °F 82% 30.04 in 9.0 mi North 20.7 mph 25.3 mph N/A   Overcast
1:53 PM 55.9 °F - 48.9 °F 77% 30.04 in 9.0 mi NNE 18.4 mph 25.3 mph N/A   Overcast
2:24 PM 55.4 °F - 48.2 °F 77% 30.06 in 10.0 mi North 18.4 mph 28.8 mph N/A   Overcast
2:53 PM 55.0 °F - 48.0 °F 77% 30.07 in 10.0 mi North 17.3 mph - N/A   Overcast
3:53 PM 55.9 °F - 48.0 °F 75% 30.09 in 10.0 mi North 18.4 mph 26.5 mph N/A   Overcast
4:53 PM 57.0 °F - 48.0 °F 72% 30.11 in 10.0 mi North 18.4 mph 26.5 mph N/A   Mostly Cloudy
5:53 PM 57.0 °F - 46.0 °F 67% 30.14 in 10.0 mi North 23.0 mph 28.8 mph N/A   Mostly Cloudy
6:53 PM 55.0 °F - 45.0 °F 69% 30.17 in 10.0 mi NNE 18.4 mph 26.5 mph N/A   Mostly Cloudy
7:13 PM 53.6 °F - 44.6 °F 72% 30.17 in 10.0 mi North 17.3 mph 27.6 mph N/A   Scattered Clouds
7:53 PM 53.1 °F - 43.0 °F 69% 30.19 in 10.0 mi NNE 15.0 mph 21.9 mph N/A   Clear
8:53 PM 51.1 °F - 42.1 °F 71% 30.21 in 10.0 mi NNE 13.8 mph 20.7 mph N/A   Mostly Cloudy
9:06 PM 51.8 °F - 42.8 °F 71% 30.21 in 10.0 mi NE 9.2 mph - N/A   Mostly Cloudy
9:53 PM 48.9 °F - 39.9 °F 71% 30.24 in 10.0 mi NNE 8.1 mph - N/A   Clear
10:53 PM 46.9 °F - 39.0 °F 74% 30.25 in 10.0 mi NE 9.2 mph - N/A   Clear
11:53 PM 45.0 °F 38.2 °F 37.0 °F 74% 30.26 in 10.0 mi NNE 15.0 mph - N/A   Clear